Lage;Zeitpunkt der Messung;Wochentag;Fu�g�nger insgesamt;Temperatur in �c;Wetterlage;Fu�g�nger insgesamt Richtung Neumarkt;Fu�g�nger insgesamt Richtung Neuer Wall;Erwachsene;Kinder;Erwachsene Richtung Neumarkt;Erwachsene Richtung Neuer Wall;Kinder Richtung Neumarkt;Kinder Richtung Neuer Wall
Steinstra�e;2022-12-01 00:00:00 +0100;Thursday;3;5;cloudy;3;0;3;0;3;0;0;0
Steinstra�e;2022-12-01 01:00:00 +0100;Thursday;4;6;cloudy;3;1;4;0;3;1;0;0
Steinstra�e;2022-12-01 02:00:00 +0100;Thursday;2;6;cloudy;1;1;2;0;1;1;0;0
Steinstra�e;2022-12-01 03:00:00 +0100;Thursday;10;6;cloudy;2;8;10;0;2;8;0;0
Steinstra�e;2022-12-01 04:00:00 +0100;Thursday;5;6;cloudy;2;3;5;0;2;3;0;0
Steinstra�e;2022-12-01 05:00:00 +0100;Thursday;17;6;cloudy;8;9;16;1;7;9;1;0
Steinstra�e;2022-12-01 06:00:00 +0100;Thursday;43;6;cloudy;23;20;38;5;20;18;3;2
Steinstra�e;2022-12-01 07:00:00 +0100;Thursday;148;5;partly-cloudy-night;83;65;140;8;82;58;1;7
Steinstra�e;2022-12-01 08:00:00 +0100;Thursday;313;5;partly-cloudy-night;170;143;307;6;165;142;5;1
Steinstra�e;2022-12-01 09:00:00 +0100;Thursday;685;5;partly-cloudy-day;339;346;663;22;327;336;12;10
Steinstra�e;2022-12-01 10:00:00 +0100;Thursday;1347;5;cloudy;659;688;1289;58;620;669;39;19
Steinstra�e;2022-12-01 11:00:00 +0100;Thursday;1666;5;cloudy;818;848;1601;65;797;804;21;44
Steinstra�e;2022-12-01 12:00:00 +0100;Thursday;1776;6;cloudy;920;856;1723;53;888;835;32;21
Steinstra�e;2022-12-01 13:00:00 +0100;Thursday;1733;6;cloudy;872;861;1678;55;846;832;26;29
Steinstra�e;2022-12-01 14:00:00 +0100;Thursday;1548;6;cloudy;796;752;1504;44;768;736;28;16
Steinstra�e;2022-12-01 15:00:00 +0100;Thursday;1854;6;cloudy;964;890;1783;71;924;859;40;31
Steinstra�e;2022-12-01 16:00:00 +0100;Thursday;2131;6;cloudy;1075;1056;2046;85;1027;1019;48;37
Steinstra�e;2022-12-01 17:00:00 +0100;Thursday;1836;5;cloudy;965;871;1772;64;934;838;31;33
Steinstra�e;2022-12-01 18:00:00 +0100;Thursday;1354;5;cloudy;710;644;1315;39;689;626;21;18
Steinstra�e;2022-12-01 19:00:00 +0100;Thursday;513;4;cloudy;249;264;489;24;236;253;13;11
Steinstra�e;2022-12-01 20:00:00 +0100;Thursday;172;4;partly-cloudy-night;60;112;169;3;60;109;0;3
Steinstra�e;2022-12-01 21:00:00 +0100;Thursday;95;3;partly-cloudy-night;27;68;95;0;27;68;0;0
Steinstra�e;2022-12-01 22:00:00 +0100;Thursday;87;3;partly-cloudy-night;21;66;86;1;21;65;0;1
Steinstra�e;2022-12-01 23:00:00 +0100;Thursday;28;3;partly-cloudy-night;9;19;28;0;9;19;0;0
Steinstra�e;2022-12-02 00:00:00 +0100;Friday;9;3;partly-cloudy-night;1;8;9;0;1;8;0;0
Steinstra�e;2022-12-02 01:00:00 +0100;Friday;7;3;cloudy;5;2;7;0;5;2;0;0
Steinstra�e;2022-12-02 02:00:00 +0100;Friday;0;4;cloudy;0;0;0;0;0;0;0;0
Steinstra�e;2022-12-02 03:00:00 +0100;Friday;1;3;cloudy;1;0;1;0;1;0;0;0
Steinstra�e;2022-12-02 04:00:00 +0100;Friday;12;3;cloudy;8;4;12;0;8;4;0;0
Steinstra�e;2022-12-02 05:00:00 +0100;Friday;19;3;cloudy;8;11;19;0;8;11;0;0
Steinstra�e;2022-12-02 06:00:00 +0100;Friday;36;3;cloudy;23;13;36;0;23;13;0;0
Steinstra�e;2022-12-02 07:00:00 +0100;Friday;175;2;cloudy;91;84;173;2;90;83;1;1
Steinstra�e;2022-12-02 08:00:00 +0100;Friday;352;2;cloudy;194;158;341;11;187;154;7;4
Steinstra�e;2022-12-02 09:00:00 +0100;Friday;806;3;cloudy;421;385;780;26;406;374;15;11
Steinstra�e;2022-12-02 10:00:00 +0100;Friday;1649;4;cloudy;841;808;1598;51;810;788;31;20
Steinstra�e;2022-12-02 11:00:00 +0100;Friday;2112;4;cloudy;1077;1035;2047;65;1046;1001;31;34
Steinstra�e;2022-12-02 12:00:00 +0100;Friday;2086;4;cloudy;1035;1051;2028;58;1005;1023;30;28
Steinstra�e;2022-12-02 13:00:00 +0100;Friday;1911;4;cloudy;876;1035;1868;43;854;1014;22;21
Steinstra�e;2022-12-02 14:00:00 +0100;Friday;1819;3;cloudy;962;857;1761;58;927;834;35;23
Steinstra�e;2022-12-02 15:00:00 +0100;Friday;2014;4;cloudy;1026;988;1950;64;992;958;34;30
Steinstra�e;2022-12-02 16:00:00 +0100;Friday;2124;3;cloudy;1134;990;2046;78;1080;966;54;24
Steinstra�e;2022-12-02 17:00:00 +0100;Friday;2282;3;cloudy;1288;994;2201;81;1244;957;44;37
Steinstra�e;2022-12-02 18:00:00 +0100;Friday;1842;2;cloudy;1041;801;1788;54;1014;774;27;27
Steinstra�e;2022-12-02 19:00:00 +0100;Friday;871;2;cloudy;463;408;846;25;452;394;11;14
Steinstra�e;2022-12-02 20:00:00 +0100;Friday;498;2;cloudy;238;260;492;6;234;258;4;2
Steinstra�e;2022-12-02 21:00:00 +0100;Friday;278;2;cloudy;92;186;276;2;91;185;1;1
Steinstra�e;2022-12-02 22:00:00 +0100;Friday;286;2;cloudy;67;219;284;2;65;219;2;0
Steinstra�e;2022-12-02 23:00:00 +0100;Friday;144;1;cloudy;30;114;143;1;30;113;0;1
Steinstra�e;2022-12-03 00:00:00 +0100;Saturday;66;1;cloudy;16;50;66;0;16;50;0;0
Steinstra�e;2022-12-03 01:00:00 +0100;Saturday;11;1;cloudy;3;8;11;0;3;8;0;0
Steinstra�e;2022-12-03 02:00:00 +0100;Saturday;12;1;cloudy;0;12;12;0;0;12;0;0
Steinstra�e;2022-12-03 03:00:00 +0100;Saturday;7;1;cloudy;2;5;7;0;2;5;0;0
Steinstra�e;2022-12-03 04:00:00 +0100;Saturday;7;1;cloudy;4;3;7;0;4;3;0;0
Steinstra�e;2022-12-03 05:00:00 +0100;Saturday;14;1;cloudy;5;9;14;0;5;9;0;0
Steinstra�e;2022-12-03 06:00:00 +0100;Saturday;22;1;cloudy;12;10;22;0;12;10;0;0
Steinstra�e;2022-12-03 07:00:00 +0100;Saturday;30;1;cloudy;16;14;30;0;16;14;0;0
Steinstra�e;2022-12-03 08:00:00 +0100;Saturday;105;1;cloudy;54;51;102;3;53;49;1;2
Steinstra�e;2022-12-03 09:00:00 +0100;Saturday;409;1;cloudy;223;186;389;20;211;178;12;8
Steinstra�e;2022-12-03 10:00:00 +0100;Saturday;1121;1;cloudy;556;565;1090;31;541;549;15;16
Steinstra�e;2022-12-03 11:00:00 +0100;Saturday;1960;2;cloudy;984;976;1900;60;955;945;29;31
Steinstra�e;2022-12-03 12:00:00 +0100;Saturday;2752;2;cloudy;1476;1276;2675;77;1436;1239;40;37
Steinstra�e;2022-12-03 13:00:00 +0100;Saturday;2973;3;cloudy;1546;1427;2886;87;1498;1388;48;39
Steinstra�e;2022-12-03 14:00:00 +0100;Saturday;3015;3;partly-cloudy-day;1493;1522;2900;115;1431;1469;62;53
Steinstra�e;2022-12-03 15:00:00 +0100;Saturday;3026;4;partly-cloudy-day;1574;1452;2903;123;1510;1393;64;59
Steinstra�e;2022-12-03 16:00:00 +0100;Saturday;3050;3;partly-cloudy-day;1660;1390;2910;140;1576;1334;84;56
Steinstra�e;2022-12-03 17:00:00 +0100;Saturday;2578;2;partly-cloudy-night;1469;1109;2500;78;1418;1082;51;27
Steinstra�e;2022-12-03 18:00:00 +0100;Saturday;1995;1;partly-cloudy-night;1166;829;1929;66;1131;798;35;31
Steinstra�e;2022-12-03 19:00:00 +0100;Saturday;1117;1;partly-cloudy-night;589;528;1089;28;573;516;16;12
Steinstra�e;2022-12-03 20:00:00 +0100;Saturday;690;1;partly-cloudy-night;326;364;676;14;322;354;4;10
Steinstra�e;2022-12-03 21:00:00 +0100;Saturday;414;0;partly-cloudy-night;125;289;407;7;122;285;3;4
Steinstra�e;2022-12-03 22:00:00 +0100;Saturday;270;0;partly-cloudy-night;80;190;269;1;79;190;1;0
Steinstra�e;2022-12-03 23:00:00 +0100;Saturday;175;0;cloudy;44;131;174;1;43;131;1;0
Steinstra�e;2022-12-04 00:00:00 +0100;Sunday;140;-1;partly-cloudy-night;36;104;139;1;36;103;0;1
Steinstra�e;2022-12-04 01:00:00 +0100;Sunday;29;-1;partly-cloudy-night;14;15;29;0;14;15;0;0
Steinstra�e;2022-12-04 02:00:00 +0100;Sunday;4;0;partly-cloudy-night;1;3;4;0;1;3;0;0
Steinstra�e;2022-12-04 03:00:00 +0100;Sunday;4;0;partly-cloudy-night;0;4;4;0;0;4;0;0
Steinstra�e;2022-12-04 04:00:00 +0100;Sunday;4;-1;partly-cloudy-night;4;0;4;0;4;0;0;0
Steinstra�e;2022-12-04 05:00:00 +0100;Sunday;2;-1;partly-cloudy-night;1;1;2;0;1;1;0;0
Steinstra�e;2022-12-04 06:00:00 +0100;Sunday;11;-1;partly-cloudy-night;4;7;11;0;4;7;0;0
Steinstra�e;2022-12-04 07:00:00 +0100;Sunday;11;0;partly-cloudy-night;5;6;11;0;5;6;0;0
Steinstra�e;2022-12-04 08:00:00 +0100;Sunday;30;0;cloudy;23;7;30;0;23;7;0;0
Steinstra�e;2022-12-04 09:00:00 +0100;Sunday;95;0;cloudy;57;38;93;2;56;37;1;1
Steinstra�e;2022-12-04 10:00:00 +0100;Sunday;183;1;partly-cloudy-day;122;61;178;5;119;59;3;2
Steinstra�e;2022-12-04 11:00:00 +0100;Sunday;339;1;cloudy;215;124;332;7;210;122;5;2
Steinstra�e;2022-12-04 12:00:00 +0100;Sunday;403;2;cloudy;225;178;395;8;220;175;5;3
Steinstra�e;2022-12-04 13:00:00 +0100;Sunday;701;3;partly-cloudy-day;431;270;665;36;408;257;23;13
Steinstra�e;2022-12-04 14:00:00 +0100;Sunday;818;3;partly-cloudy-day;437;381;785;33;416;369;21;12
Steinstra�e;2022-12-04 15:00:00 +0100;Sunday;971;3;partly-cloudy-day;545;426;918;53;520;398;25;28
Steinstra�e;2022-12-04 16:00:00 +0100;Sunday;1108;3;partly-cloudy-day;679;429;1052;56;638;414;41;15
Steinstra�e;2022-12-04 17:00:00 +0100;Sunday;1050;3;partly-cloudy-night;543;507;1010;40;524;486;19;21
Steinstra�e;2022-12-04 18:00:00 +0100;Sunday;855;2;partly-cloudy-night;416;439;822;33;408;414;8;25
Steinstra�e;2022-12-04 19:00:00 +0100;Sunday;540;2;cloudy;166;374;534;6;164;370;2;4
Steinstra�e;2022-12-04 20:00:00 +0100;Sunday;172;2;cloudy;52;120;171;1;51;120;1;0
Steinstra�e;2022-12-04 21:00:00 +0100;Sunday;78;2;cloudy;33;45;78;0;33;45;0;0
Steinstra�e;2022-12-04 22:00:00 +0100;Sunday;36;2;cloudy;10;26;35;1;10;25;0;1
Steinstra�e;2022-12-04 23:00:00 +0100;Sunday;10;2;cloudy;3;7;10;0;3;7;0;0
Steinstra�e;2022-12-05 00:00:00 +0100;Monday;3;2;cloudy;1;2;3;0;1;2;0;0
Steinstra�e;2022-12-05 01:00:00 +0100;Monday;4;2;cloudy;2;2;4;0;2;2;0;0
Steinstra�e;2022-12-05 02:00:00 +0100;Monday;3;2;cloudy;1;2;3;0;1;2;0;0
Steinstra�e;2022-12-05 03:00:00 +0100;Monday;3;2;cloudy;3;0;3;0;3;0;0;0
Steinstra�e;2022-12-05 04:00:00 +0100;Monday;6;2;cloudy;2;4;5;1;2;3;0;1
Steinstra�e;2022-12-05 05:00:00 +0100;Monday;13;2;cloudy;7;6;13;0;7;6;0;0
Steinstra�e;2022-12-05 06:00:00 +0100;Monday;58;2;cloudy;39;19;56;2;38;18;1;1
Steinstra�e;2022-12-05 07:00:00 +0100;Monday;122;2;cloudy;75;47;119;3;73;46;2;1
Steinstra�e;2022-12-05 08:00:00 +0100;Monday;198;2;cloudy;114;84;191;7;110;81;4;3
Steinstra�e;2022-12-05 09:00:00 +0100;Monday;353;1;rain;190;163;342;11;183;159;7;4
Steinstra�e;2022-12-05 10:00:00 +0100;Monday;748;2;rain;335;413;730;18;325;405;10;8
Steinstra�e;2022-12-05 11:00:00 +0100;Monday;968;2;rain;465;503;944;24;454;490;11;13
Steinstra�e;2022-12-05 12:00:00 +0100;Monday;881;1;rain;408;473;864;17;399;465;9;8
Steinstra�e;2022-12-05 13:00:00 +0100;Monday;832;2;rain;414;418;808;24;399;409;15;9
Steinstra�e;2022-12-05 14:00:00 +0100;Monday;933;2;rain;460;473;919;14;454;465;6;8
Steinstra�e;2022-12-05 15:00:00 +0100;Monday;865;2;rain;447;418;844;21;434;410;13;8
Steinstra�e;2022-12-05 16:00:00 +0100;Monday;851;2;rain;402;449;829;22;393;436;9;13
Steinstra�e;2022-12-05 17:00:00 +0100;Monday;1006;2;rain;523;483;991;15;513;478;10;5
Steinstra�e;2022-12-05 18:00:00 +0100;Monday;853;2;rain;444;409;825;28;432;393;12;16
Steinstra�e;2022-12-05 19:00:00 +0100;Monday;239;2;rain;84;155;233;6;83;150;1;5
Steinstra�e;2022-12-05 20:00:00 +0100;Monday;92;2;rain;39;53;91;1;38;53;1;0
Steinstra�e;2022-12-05 21:00:00 +0100;Monday;62;2;rain;17;45;61;1;17;44;0;1
Steinstra�e;2022-12-05 22:00:00 +0100;Monday;25;2;rain;8;17;25;0;8;17;0;0
Steinstra�e;2022-12-05 23:00:00 +0100;Monday;15;2;rain;3;12;15;0;3;12;0;0
Steinstra�e;2022-12-06 00:00:00 +0100;Tuesday;1;2;cloudy;0;1;1;0;0;1;0;0
Steinstra�e;2022-12-06 01:00:00 +0100;Tuesday;2;3;cloudy;1;1;2;0;1;1;0;0
Steinstra�e;2022-12-06 02:00:00 +0100;Tuesday;2;3;cloudy;2;0;2;0;2;0;0;0
Steinstra�e;2022-12-06 03:00:00 +0100;Tuesday;2;4;cloudy;1;1;2;0;1;1;0;0
Steinstra�e;2022-12-06 04:00:00 +0100;Tuesday;8;4;cloudy;3;5;8;0;3;5;0;0
Steinstra�e;2022-12-06 05:00:00 +0100;Tuesday;12;4;cloudy;5;7;11;1;4;7;1;0
Steinstra�e;2022-12-06 06:00:00 +0100;Tuesday;46;4;cloudy;32;14;45;1;32;13;0;1
Steinstra�e;2022-12-06 07:00:00 +0100;Tuesday;149;4;cloudy;77;72;145;4;76;69;1;3
Steinstra�e;2022-12-06 08:00:00 +0100;Tuesday;367;4;cloudy;189;178;351;16;180;171;9;7
Steinstra�e;2022-12-06 09:00:00 +0100;Tuesday;895;4;cloudy;473;422;854;41;448;406;25;16
Steinstra�e;2022-12-06 10:00:00 +0100;Tuesday;1636;4;cloudy;818;818;1574;62;783;791;35;27
Steinstra�e;2022-12-06 11:00:00 +0100;Tuesday;1907;4;cloudy;972;935;1848;59;937;911;35;24
Steinstra�e;2022-12-06 12:00:00 +0100;Tuesday;2037;5;cloudy;1019;1018;1985;52;993;992;26;26
Steinstra�e;2022-12-06 13:00:00 +0100;Tuesday;1963;5;cloudy;941;1022;1906;57;913;993;28;29
Steinstra�e;2022-12-06 14:00:00 +0100;Tuesday;1843;5;cloudy;934;909;1778;65;899;879;35;30
Steinstra�e;2022-12-06 15:00:00 +0100;Tuesday;2053;6;partly-cloudy-day;996;1057;1957;96;941;1016;55;41
Steinstra�e;2022-12-06 16:00:00 +0100;Tuesday;2086;5;cloudy;1092;994;1994;92;1046;948;46;46
Steinstra�e;2022-12-06 17:00:00 +0100;Tuesday;1902;5;partly-cloudy-night;1016;886;1835;67;975;860;41;26
Steinstra�e;2022-12-06 18:00:00 +0100;Tuesday;1425;4;partly-cloudy-night;767;658;1382;43;747;635;20;23
Steinstra�e;2022-12-06 19:00:00 +0100;Tuesday;601;4;cloudy;244;357;583;18;240;343;4;14
Steinstra�e;2022-12-06 20:00:00 +0100;Tuesday;218;4;cloudy;90;128;216;2;90;126;0;2
Steinstra�e;2022-12-06 21:00:00 +0100;Tuesday;89;4;cloudy;31;58;86;3;29;57;2;1
Steinstra�e;2022-12-06 22:00:00 +0100;Tuesday;53;4;cloudy;13;40;53;0;13;40;0;0
Steinstra�e;2022-12-06 23:00:00 +0100;Tuesday;20;4;cloudy;6;14;20;0;6;14;0;0
Steinstra�e;2022-12-07 00:00:00 +0100;Wednesday;2;5;cloudy;0;2;2;0;0;2;0;0
Steinstra�e;2022-12-07 01:00:00 +0100;Wednesday;5;5;cloudy;0;5;5;0;0;5;0;0
Steinstra�e;2022-12-07 02:00:00 +0100;Wednesday;1;4;cloudy;1;0;1;0;1;0;0;0
Steinstra�e;2022-12-07 03:00:00 +0100;Wednesday;1;4;partly-cloudy-night;0;1;1;0;0;1;0;0
Steinstra�e;2022-12-07 04:00:00 +0100;Wednesday;5;4;partly-cloudy-night;1;4;5;0;1;4;0;0
Steinstra�e;2022-12-07 05:00:00 +0100;Wednesday;11;3;partly-cloudy-night;6;5;11;0;6;5;0;0
Steinstra�e;2022-12-07 06:00:00 +0100;Wednesday;51;3;partly-cloudy-night;33;18;51;0;33;18;0;0
Steinstra�e;2022-12-07 07:00:00 +0100;Wednesday;134;3;partly-cloudy-night;64;70;133;1;64;69;0;1
Steinstra�e;2022-12-07 08:00:00 +0100;Wednesday;307;3;partly-cloudy-night;165;142;292;15;155;137;10;5
Steinstra�e;2022-12-07 09:00:00 +0100;Wednesday;644;2;partly-cloudy-day;335;309;621;23;326;295;9;14
Steinstra�e;2022-12-07 10:00:00 +0100;Wednesday;1333;3;partly-cloudy-day;673;660;1292;41;653;639;20;21
Steinstra�e;2022-12-07 11:00:00 +0100;Wednesday;1697;4;partly-cloudy-day;878;819;1636;61;833;803;45;16
Steinstra�e;2022-12-07 12:00:00 +0100;Wednesday;1847;5;partly-cloudy-day;935;912;1797;50;911;886;24;26
Steinstra�e;2022-12-07 13:00:00 +0100;Wednesday;1780;5;partly-cloudy-day;859;921;1742;38;838;904;21;17
Steinstra�e;2022-12-07 14:00:00 +0100;Wednesday;1512;6;cloudy;828;684;1465;47;807;658;21;26
Steinstra�e;2022-12-07 15:00:00 +0100;Wednesday;1823;5;cloudy;907;916;1760;63;872;888;35;28
Steinstra�e;2022-12-07 16:00:00 +0100;Wednesday;2078;5;cloudy;1108;970;1991;87;1048;943;60;27
Steinstra�e;2022-12-07 17:00:00 +0100;Wednesday;2111;4;cloudy;1178;933;2035;76;1131;904;47;29
Steinstra�e;2022-12-07 18:00:00 +0100;Wednesday;1387;4;cloudy;734;653;1334;53;702;632;32;21
Steinstra�e;2022-12-07 19:00:00 +0100;Wednesday;544;4;cloudy;228;316;527;17;224;303;4;13
Steinstra�e;2022-12-07 20:00:00 +0100;Wednesday;256;4;cloudy;93;163;248;8;88;160;5;3
Steinstra�e;2022-12-07 21:00:00 +0100;Wednesday;154;4;partly-cloudy-night;43;111;151;3;40;111;3;0
Steinstra�e;2022-12-07 22:00:00 +0100;Wednesday;76;4;partly-cloudy-night;17;59;76;0;17;59;0;0
Steinstra�e;2022-12-07 23:00:00 +0100;Wednesday;27;4;partly-cloudy-night;11;16;27;0;11;16;0;0
Steinstra�e;2022-12-08 00:00:00 +0100;Thursday;12;3;partly-cloudy-night;2;10;12;0;2;10;0;0
Steinstra�e;2022-12-08 01:00:00 +0100;Thursday;4;3;cloudy;3;1;4;0;3;1;0;0
Steinstra�e;2022-12-08 02:00:00 +0100;Thursday;1;3;cloudy;0;1;1;0;0;1;0;0
Steinstra�e;2022-12-08 03:00:00 +0100;Thursday;0;4;cloudy;0;0;0;0;0;0;0;0
Steinstra�e;2022-12-08 04:00:00 +0100;Thursday;7;4;cloudy;2;5;7;0;2;5;0;0
Steinstra�e;2022-12-08 05:00:00 +0100;Thursday;21;4;cloudy;12;9;21;0;12;9;0;0
Steinstra�e;2022-12-08 06:00:00 +0100;Thursday;29;3;cloudy;15;14;28;1;15;13;0;1
Steinstra�e;2022-12-08 07:00:00 +0100;Thursday;83;3;rain;55;28;82;1;54;28;1;0
Steinstra�e;2022-12-08 08:00:00 +0100;Thursday;194;3;rain;111;83;185;9;106;79;5;4
Steinstra�e;2022-12-08 09:00:00 +0100;Thursday;509;3;rain;235;274;489;20;224;265;11;9
Steinstra�e;2022-12-08 10:00:00 +0100;Thursday;744;3;rain;368;376;714;30;356;358;12;18
Steinstra�e;2022-12-08 11:00:00 +0100;Thursday;782;3;rain;380;402;765;17;371;394;9;8
Steinstra�e;2022-12-08 12:00:00 +0100;Thursday;945;3;rain;493;452;925;20;483;442;10;10
Steinstra�e;2022-12-08 13:00:00 +0100;Thursday;908;3;rain;448;460;876;32;430;446;18;14
Steinstra�e;2022-12-08 14:00:00 +0100;Thursday;845;3;rain;411;434;824;21;404;420;7;14
Steinstra�e;2022-12-08 15:00:00 +0100;Thursday;949;3;rain;480;469;929;20;469;460;11;9
Steinstra�e;2022-12-08 16:00:00 +0100;Thursday;1320;3;cloudy;696;624;1274;46;672;602;24;22
Steinstra�e;2022-12-08 17:00:00 +0100;Thursday;1599;3;cloudy;871;728;1544;55;840;704;31;24
Steinstra�e;2022-12-08 18:00:00 +0100;Thursday;1201;3;cloudy;672;529;1175;26;657;518;15;11
Steinstra�e;2022-12-08 19:00:00 +0100;Thursday;479;3;cloudy;233;246;471;8;228;243;5;3
Steinstra�e;2022-12-08 20:00:00 +0100;Thursday;229;3;cloudy;43;186;223;6;42;181;1;5
Steinstra�e;2022-12-08 21:00:00 +0100;Thursday;129;3;cloudy;40;89;129;0;40;89;0;0
Steinstra�e;2022-12-08 22:00:00 +0100;Thursday;85;3;cloudy;18;67;84;1;18;66;0;1
Steinstra�e;2022-12-08 23:00:00 +0100;Thursday;29;3;cloudy;11;18;28;1;11;17;0;1
Steinstra�e;2022-12-09 00:00:00 +0100;Friday;4;2;partly-cloudy-night;2;2;4;0;2;2;0;0
Steinstra�e;2022-12-09 01:00:00 +0100;Friday;5;2;partly-cloudy-night;1;4;5;0;1;4;0;0
Steinstra�e;2022-12-09 02:00:00 +0100;Friday;2;2;partly-cloudy-night;1;1;2;0;1;1;0;0
Steinstra�e;2022-12-09 03:00:00 +0100;Friday;3;2;partly-cloudy-night;3;0;3;0;3;0;0;0
Steinstra�e;2022-12-09 04:00:00 +0100;Friday;10;2;partly-cloudy-night;6;4;10;0;6;4;0;0
Steinstra�e;2022-12-09 05:00:00 +0100;Friday;12;2;partly-cloudy-night;6;6;12;0;6;6;0;0
Steinstra�e;2022-12-09 06:00:00 +0100;Friday;72;1;partly-cloudy-night;39;33;70;2;39;31;0;2
Steinstra�e;2022-12-09 07:00:00 +0100;Friday;196;1;partly-cloudy-night;97;99;188;8;93;95;4;4
Steinstra�e;2022-12-09 08:00:00 +0100;Friday;357;0;partly-cloudy-night;202;155;341;16;194;147;8;8
Steinstra�e;2022-12-09 09:00:00 +0100;Friday;902;1;partly-cloudy-day;453;449;872;30;444;428;9;21
Steinstra�e;2022-12-09 10:00:00 +0100;Friday;1805;1;partly-cloudy-day;934;871;1747;58;902;845;32;26
Steinstra�e;2022-12-09 11:00:00 +0100;Friday;2199;1;partly-cloudy-day;1125;1074;2130;69;1078;1052;47;22
Steinstra�e;2022-12-09 12:00:00 +0100;Friday;2311;2;partly-cloudy-day;1181;1130;2222;89;1134;1088;47;42
Steinstra�e;2022-12-09 13:00:00 +0100;Friday;2078;3;partly-cloudy-day;979;1099;2015;63;943;1072;36;27
Steinstra�e;2022-12-09 14:00:00 +0100;Friday;1791;3;partly-cloudy-day;884;907;1742;49;862;880;22;27
Steinstra�e;2022-12-09 15:00:00 +0100;Friday;2097;3;partly-cloudy-day;1071;1026;2027;70;1028;999;43;27
Steinstra�e;2022-12-09 16:00:00 +0100;Friday;2352;2;partly-cloudy-day;1267;1085;2271;81;1213;1058;54;27
Steinstra�e;2022-12-09 17:00:00 +0100;Friday;2461;1;partly-cloudy-night;1338;1123;2386;75;1298;1088;40;35
Steinstra�e;2022-12-09 18:00:00 +0100;Friday;2022;1;partly-cloudy-night;1156;866;1975;47;1129;846;27;20
Steinstra�e;2022-12-09 19:00:00 +0100;Friday;1056;1;partly-cloudy-night;565;491;1037;19;551;486;14;5
Steinstra�e;2022-12-09 20:00:00 +0100;Friday;499;1;partly-cloudy-night;242;257;491;8;235;256;7;1
Steinstra�e;2022-12-09 21:00:00 +0100;Friday;388;1;partly-cloudy-night;131;257;384;4;130;254;1;3
Steinstra�e;2022-12-09 22:00:00 +0100;Friday;311;1;partly-cloudy-night;57;254;309;2;56;253;1;1
Steinstra�e;2022-12-09 23:00:00 +0100;Friday;157;1;clear-night;31;126;157;0;31;126;0;0
Steinstra�e;2022-12-10 00:00:00 +0100;Saturday;67;0;partly-cloudy-night;19;48;67;0;19;48;0;0
Steinstra�e;2022-12-10 01:00:00 +0100;Saturday;31;0;clear-night;5;26;31;0;5;26;0;0
Steinstra�e;2022-12-10 02:00:00 +0100;Saturday;17;0;clear-night;8;9;17;0;8;9;0;0
Steinstra�e;2022-12-10 03:00:00 +0100;Saturday;2;-1;clear-night;1;1;2;0;1;1;0;0
Steinstra�e;2022-12-10 04:00:00 +0100;Saturday;5;-1;partly-cloudy-night;2;3;5;0;2;3;0;0
Steinstra�e;2022-12-10 05:00:00 +0100;Saturday;12;-1;partly-cloudy-night;6;6;11;1;6;5;0;1
Steinstra�e;2022-12-10 06:00:00 +0100;Saturday;18;-1;partly-cloudy-night;11;7;16;2;9;7;2;0
Steinstra�e;2022-12-10 07:00:00 +0100;Saturday;29;-2;partly-cloudy-night;18;11;28;1;17;11;1;0
Steinstra�e;2022-12-10 08:00:00 +0100;Saturday;68;-2;cloudy;29;39;67;1;28;39;1;0
Steinstra�e;2022-12-10 09:00:00 +0100;Saturday;351;-1;cloudy;176;175;347;4;175;172;1;3
Steinstra�e;2022-12-10 10:00:00 +0100;Saturday;1069;-1;partly-cloudy-day;537;532;1040;29;523;517;14;15
Steinstra�e;2022-12-10 11:00:00 +0100;Saturday;1732;0;cloudy;882;850;1674;58;848;826;34;24
Steinstra�e;2022-12-10 12:00:00 +0100;Saturday;2446;0;partly-cloudy-day;1260;1186;2368;78;1213;1155;47;31
Steinstra�e;2022-12-10 13:00:00 +0100;Saturday;2734;1;cloudy;1419;1315;2665;69;1378;1287;41;28
Steinstra�e;2022-12-10 14:00:00 +0100;Saturday;2949;1;cloudy;1499;1450;2859;90;1455;1404;44;46
Steinstra�e;2022-12-10 15:00:00 +0100;Saturday;2915;2;partly-cloudy-day;1472;1443;2811;104;1414;1397;58;46
Steinstra�e;2022-12-10 16:00:00 +0100;Saturday;2937;0;partly-cloudy-day;1597;1340;2820;117;1535;1285;62;55
Steinstra�e;2022-12-10 17:00:00 +0100;Saturday;2526;0;partly-cloudy-night;1486;1040;2428;98;1426;1002;60;38
Steinstra�e;2022-12-10 18:00:00 +0100;Saturday;1697;0;partly-cloudy-night;935;762;1643;54;909;734;26;28
Steinstra�e;2022-12-10 19:00:00 +0100;Saturday;822;0;partly-cloudy-night;392;430;805;17;385;420;7;10
Steinstra�e;2022-12-10 20:00:00 +0100;Saturday;524;0;partly-cloudy-night;218;306;514;10;216;298;2;8
Steinstra�e;2022-12-10 21:00:00 +0100;Saturday;281;0;partly-cloudy-night;94;187;280;1;93;187;1;0
Steinstra�e;2022-12-10 22:00:00 +0100;Saturday;205;0;partly-cloudy-night;41;164;203;2;40;163;1;1
Steinstra�e;2022-12-10 23:00:00 +0100;Saturday;112;0;partly-cloudy-night;22;90;112;0;22;90;0;0
Steinstra�e;2022-12-11 00:00:00 +0100;Sunday;56;0;partly-cloudy-night;16;40;56;0;16;40;0;0
Steinstra�e;2022-12-11 01:00:00 +0100;Sunday;27;0;partly-cloudy-night;11;16;27;0;11;16;0;0
Steinstra�e;2022-12-11 02:00:00 +0100;Sunday;17;0;partly-cloudy-night;12;5;17;0;12;5;0;0
Steinstra�e;2022-12-11 03:00:00 +0100;Sunday;7;0;partly-cloudy-night;1;6;7;0;1;6;0;0
Steinstra�e;2022-12-11 04:00:00 +0100;Sunday;5;0;partly-cloudy-night;0;5;5;0;0;5;0;0
Steinstra�e;2022-12-11 05:00:00 +0100;Sunday;8;0;partly-cloudy-night;4;4;8;0;4;4;0;0
Steinstra�e;2022-12-11 06:00:00 +0100;Sunday;7;0;partly-cloudy-night;3;4;7;0;3;4;0;0
Steinstra�e;2022-12-11 07:00:00 +0100;Sunday;9;0;partly-cloudy-night;5;4;8;1;5;3;0;1
Steinstra�e;2022-12-11 08:00:00 +0100;Sunday;24;-1;partly-cloudy-night;11;13;24;0;11;13;0;0
Steinstra�e;2022-12-11 09:00:00 +0100;Sunday;68;-1;partly-cloudy-day;42;26;61;7;37;24;5;2
Steinstra�e;2022-12-11 10:00:00 +0100;Sunday;136;0;cloudy;83;53;131;5;79;52;4;1
Steinstra�e;2022-12-11 11:00:00 +0100;Sunday;252;0;cloudy;146;106;243;9;143;100;3;6
Steinstra�e;2022-12-11 12:00:00 +0100;Sunday;374;1;cloudy;187;187;361;13;183;178;4;9
Steinstra�e;2022-12-11 13:00:00 +0100;Sunday;576;1;partly-cloudy-day;326;250;556;20;308;248;18;2
Steinstra�e;2022-12-11 14:00:00 +0100;Sunday;602;1;cloudy;347;255;576;26;333;243;14;12
Steinstra�e;2022-12-11 15:00:00 +0100;Sunday;904;1;cloudy;554;350;868;36;532;336;22;14
Steinstra�e;2022-12-11 16:00:00 +0100;Sunday;1090;0;cloudy;693;397;1048;42;664;384;29;13
Steinstra�e;2022-12-11 17:00:00 +0100;Sunday;981;1;cloudy;532;449;939;42;512;427;20;22
Steinstra�e;2022-12-11 18:00:00 +0100;Sunday;757;1;cloudy;360;397;717;40;343;374;17;23
Steinstra�e;2022-12-11 19:00:00 +0100;Sunday;398;0;cloudy;104;294;388;10;102;286;2;8
Steinstra�e;2022-12-11 20:00:00 +0100;Sunday;157;0;cloudy;42;115;153;4;40;113;2;2
Steinstra�e;2022-12-11 21:00:00 +0100;Sunday;66;0;cloudy;27;39;65;1;26;39;1;0
Steinstra�e;2022-12-11 22:00:00 +0100;Sunday;34;0;cloudy;11;23;34;0;11;23;0;0
Steinstra�e;2022-12-11 23:00:00 +0100;Sunday;26;0;cloudy;8;18;26;0;8;18;0;0
Steinstra�e;2022-12-12 00:00:00 +0100;Monday;1;0;cloudy;0;1;1;0;0;1;0;0
Steinstra�e;2022-12-12 01:00:00 +0100;Monday;7;0;cloudy;4;3;7;0;4;3;0;0
Steinstra�e;2022-12-12 02:00:00 +0100;Monday;2;0;partly-cloudy-night;2;0;2;0;2;0;0;0